Findlay, OH

11:21 AM EDT on May 21, 2018 (GMT -0400)
Findlay

Weather History for KFDY - November, 2014

Change the Weather History Date:

Wednesday, November 19, 2014

  Actual Average Record
Temperature  
Mean Temperature 25 °F -  
Max Temperature 35 °F 48 °F 70 °F (1953)
Min Temperature 15 °F 34 °F 15 °F (2014)
Degree Days  
Heating Degree Days 40    
Moisture  
Dew Point 16 °F    
Average Humidity 67    
Maximum Humidity 74    
Minimum Humidity 61    
Precipitation  
Precipitation 0.00 in - - ()
Sea Level Pressure  
Sea Level Pressure 29.96 in    
Wind  
Wind Speed 18 mph (SW)    
Max Wind Speed 32 mph    
Max Gust Speed 44 mph    
Visibility 9 miles    
Events Snow    
Averages and records for this station are not official NWS values.
T = Trace of Precipitation, MM = Missing Value Source: NWS Daily Summary

Daily Weather History Graph

Daily Weather History Graph

Search for Another Location

Airport or City:

Astronomy

Nov. 19, 2014 Rise Set
Actual Time 7:26 AM EST 5:12 PM EST
Civil Twilight 6:57 AM EST 5:42 PM EST
Nautical Twilight 6:23 AM EST 6:16 PM EST
Astronomical Twilight 5:50 AM EST 6:48 PM EST
Moon 4:20 AM EST (11/19) 3:41 PM EST (11/19)
Length of Visible Light 10h 45m
Length of Day
9h 46m
Waning Crescent, 9% of the Moon is Illuminated
Nov 19
Waning Crescent
Nov 22
New
Nov 29
First Quarter
Dec 6
Full
Dec 14
Last Quarter

Hourly Weather History & Observations

Time (EST) Temp. Windchill Dew Point Humidity Pressure Visibility Wind Dir Wind Speed Gust Speed Precip Events Conditions
12:53 AM 17.1 °F 3.0 °F 7.0 °F 65% 30.22 in 10.0 mi WSW 13.8 mph 24.2 mph N/A   Overcast
1:53 AM 16.0 °F 3.6 °F 7.0 °F 68% 30.20 in 10.0 mi SW 10.4 mph - N/A   Overcast
2:53 AM 15.1 °F 2.5 °F 7.0 °F 70% 30.19 in 10.0 mi SSW 10.4 mph - N/A   Overcast
3:53 AM 16.0 °F 3.6 °F 8.1 °F 71% 30.18 in 10.0 mi South 10.4 mph - N/A   Overcast
4:53 AM 17.1 °F 2.5 °F 10.0 °F 74% 30.15 in 10.0 mi South 15.0 mph - N/A   Overcast
5:53 AM 16.0 °F 1.7 °F 8.1 °F 71% 30.14 in 10.0 mi South 13.8 mph - N/A   Partly Cloudy
6:53 AM 17.1 °F 2.5 °F 9.0 °F 71% 30.10 in 10.0 mi SSE 15.0 mph - N/A   Overcast
7:53 AM 17.1 °F 1.5 °F 9.0 °F 71% 30.07 in 10.0 mi SSE 17.3 mph - N/A   Partly Cloudy
8:53 AM 19.9 °F 3.9 °F 10.0 °F 65% 30.03 in 10.0 mi SSE 20.7 mph - N/A   Overcast
9:53 AM 21.0 °F 5.4 °F 10.9 °F 65% 29.98 in 10.0 mi SSE 20.7 mph - N/A   Overcast
10:20 AM 21.0 °F 4.6 °F 12.9 °F 71% 29.92 in 2.0 mi SSE 23.0 mph 28.8 mph 0.00 in Snow Light Snow
10:42 AM 21.9 °F 7.3 °F 14.0 °F 72% 29.91 in 3.0 mi South 18.4 mph - 0.00 in Snow Light Snow
10:53 AM 21.9 °F 6.2 °F 14.0 °F 72% 29.93 in 2.0 mi South 21.9 mph - 0.00 in Snow Light Snow
11:03 AM 23.0 °F 6.9 °F 14.0 °F 68% 29.89 in 6.0 mi South 24.2 mph - 0.00 in Snow Light Snow
11:53 AM 27.0 °F 11.9 °F 17.1 °F 66% 29.88 in 10.0 mi South 25.3 mph 34.5 mph 0.00 in   Mostly Cloudy
12:53 PM 30.0 °F 17.5 °F 19.9 °F 66% 29.83 in 10.0 mi SSW 19.6 mph - N/A   Scattered Clouds
1:53 PM 32.0 °F 19.2 °F 21.0 °F 64% 29.81 in 10.0 mi SSW 23.0 mph - N/A   Overcast
2:53 PM 33.1 °F 20.9 °F 23.0 °F 66% 29.79 in 10.0 mi SSW 21.9 mph 27.6 mph N/A   Overcast
3:53 PM 35.1 °F 23.3 °F 24.1 °F 64% 29.78 in 10.0 mi SW 23.0 mph - N/A   Overcast
4:20 PM 35.1 °F 24.1 °F 25.0 °F 67% 29.77 in 10.0 mi SW 19.6 mph 28.8 mph N/A   Overcast
4:41 PM 35.1 °F 25.2 °F 25.0 °F 67% 29.77 in 10.0 mi SW 16.1 mph - N/A   Overcast
4:53 PM 35.1 °F 24.1 °F 25.0 °F 67% 29.80 in 10.0 mi WSW 19.6 mph 28.8 mph N/A   Overcast
5:53 PM 34.0 °F 19.9 °F 23.0 °F 64% 29.83 in 10.0 mi WSW 32.2 mph 43.7 mph N/A   Overcast
6:53 PM 30.9 °F 17.2 °F 21.0 °F 67% 29.88 in 10.0 mi West 25.3 mph 34.5 mph N/A   Overcast
7:30 PM 30.0 °F 16.6 °F 21.0 °F 69% 29.89 in 10.0 mi West 23.0 mph 35.7 mph N/A   Overcast
7:44 PM 30.0 °F 15.4 °F 19.0 °F 64% 29.90 in 10.0 mi West 27.6 mph 35.7 mph N/A   Overcast
7:53 PM 30.0 °F 16.6 °F 19.0 °F 64% 29.93 in 10.0 mi West 23.0 mph 34.5 mph N/A   Overcast
8:53 PM 28.9 °F 16.5 °F 19.9 °F 69% 29.94 in 10.0 mi West 18.4 mph - N/A   Overcast
9:29 PM 28.0 °F 13.0 °F 17.1 °F 63% 29.92 in 10.0 mi West 26.5 mph 36.8 mph N/A   Overcast
9:53 PM 27.0 °F 11.6 °F 15.1 °F 61% 29.96 in 10.0 mi West 26.5 mph 34.5 mph N/A   Overcast
10:53 PM 26.1 °F 11.0 °F 16.0 °F 66% 29.97 in 10.0 mi WSW 24.2 mph 29.9 mph N/A   Overcast
11:53 PM 26.1 °F 12.3 °F 17.1 °F 69% 29.98 in 7.0 mi West 19.6 mph 34.5 mph 0.00 in Snow Light Snow